Location: Columbus, NC
(35.2263°N, 82.1543°W)
Time: 22:29:05
(UTC-04:00)

ARIANE 6 FM1 Upper Stage - Visible Passes

Search period start: 07 June 2026 00:00
Search period end: 17 June 2026 00:00
Orbit: 528 x 599 km, 62.0° (Epoch: 7 June)

Date Brightness Start Highest point End Pass type
(mag) Time Alt. Az. Time Alt. Az. Time Alt. Az.
7 Jun 2.7 03:45:51 70° NW 03:45:51 70° NW 03:49:53 10° NNE visible
8 Jun 3.3 03:45:10 45° NW 03:45:10 45° NW 03:49:07 10° NNE visible
9 Jun 5.4 02:08:29 12° ENE 02:08:29 12° ENE 02:08:58 10° ENE visible
9 Jun 3.9 03:44:26 31° NW 03:44:31 31° NW 03:48:14 10° NNE visible
10 Jun 5.2 02:07:41 16° ENE 02:07:41 16° ENE 02:08:44 10° NE visible
10 Jun 4.4 03:43:38 21° NW 03:43:58 22° NW 03:47:12 10° N visible
11 Jun 5.0 02:06:51 20° NE 02:06:51 20° NE 02:08:17 10° NE visible
11 Jun 4.9 03:42:47 15° WNW 03:43:27 16° NW 03:45:59 10° N visible
12 Jun 4.8 02:05:57 24° NE 02:05:57 24° NE 02:07:41 10° NE visible
12 Jun 5.3 03:41:53 10° WNW 03:42:57 11° NW 03:44:14 10° NNW visible
13 Jun 4.7 02:04:58 27° NNE 02:04:58 27° NNE 02:06:58 10° NNE visible
14 Jun 4.7 02:03:57 27° N 02:03:57 27° N 02:06:08 10° NNE visible
15 Jun 4.8 02:02:51 24° NNW 02:02:51 24° NNW 02:05:11 10° N visible
16 Jun 5.5 00:25:45 10° NE 00:25:45 10° NE 00:25:45 10° NE visible
16 Jun 5.0 02:01:40 20° NNW 02:01:40 20° NNW 02:04:06 10° N visible
